Location: Harrow
(51.5833°N, 0.3167°W)
Time: 21:42:33
(UTC+00:00)

Daily predictions for brighter satellites

Satellite Brightness Start Highest point End
(mag) Time Altitude Azimuth Time Altitude Azimuth Time Altitude Azimuth
Nadezhda 4 Rocket 4.2 19:25:02 10° N 19:31:25 87° W 19:37:41 10° S
Cosmos 2034 Rocket 4.0 19:26:03 10° S 19:32:14 75° E 19:38:32 10° NNE
In-Cosmos 22 Rocket 4.4 19:30:51 10° NNW 19:36:43 86° W 19:42:33 10° S
SAR-Lupe-1 4.3 19:35:26 10° NNE 19:39:02 75° WNW 19:42:36 10° SSW
Cosmos 2237 Rocket 3.1 19:34:47 10° NNW 19:40:00 36° NE 19:45:09 10° ESE
Cosmos 1464 Rocket 4.4 19:33:48 10° SSW 19:40:06 74° WNW 19:46:21 10° N
Exosat Rocket 4.1 19:33:55 10° NNW 19:41:03 66° ENE 19:46:23 10° SE
BREEZE-M DEB (TANK) 4.1 19:37:38 10° WSW 19:42:30 42° SSE 19:47:10 10° E
SJ-6B 2.7 19:39:23 10° SSE 19:43:06 89° ENE 19:46:54 10° NNW
SL-8 R/B 4.2 19:39:26 10° W 19:44:06 49° SSW 19:48:46 10° ESE
Meteor 2-10 Rocket 3.6 19:38:58 10° S 19:44:10 66° E 19:49:38 10° NNE
BREEZE-M DEB (TANK) 4.2 19:41:44 10° SW 19:44:42 43° SSE 19:51:50 10° ENE
MOS 1 4.3 19:41:34 10° SSE 19:47:11 75° ENE 19:52:52 10° NNW
Cosmos 2026 Rocket 4.0 19:41:47 10° N 19:47:49 64° ENE 19:53:52 10° SSE
Cosmos 405 3.0 19:46:52 10° S 19:50:14 55° E 19:53:41 10° NNE
OBJECT-B 1.0 19:48:16 10° S 19:51:30 75° WSW 19:54:45 10° NNW
IRS-1A Rocket 4.3 19:46:29 10° SSE 19:52:04 82° ENE 19:57:48 10° NNW
Terra 3.9 19:51:43 10° ENE 19:53:39 12° NE 19:55:36 10° NNE
SL-27 R/B 4.3 19:50:48 10° SW 19:54:02 35° WNW 19:57:15 10° N
BREEZE-M DEB (TANK) 3.9 19:50:01 10° SW 19:54:08 69° SSE 20:09:31 10° ENE
Cosmos 1892 3.2 19:50:48 10° NNW 19:54:32 62° W 19:58:16 10° S
CZ-4 R/B 4.4 19:51:53 10° SW 19:54:33 16° W 19:57:12 10° NW
NOSS 3-4 (A) 3.4 19:49:15 10° SW 19:55:09 87° SE 20:01:36 10° NE
NOSS 3-4 (C) 3.4 19:49:21 10° SW 19:55:15 87° SE 20:01:42 10° NE
Cosmos 1627 Rocket 4.5 19:51:48 10° N 19:57:58 78° E 20:04:09 10° SSE
Cosmos 2098 Rocket 4.5 19:51:51 10° N 19:58:48 86° W 20:06:16 10° S
Cosmos 2227 Rocket 3.9 19:57:04 10° ESE 19:59:15 13° E 20:01:37 10° ENE
Cosmos 1606 Rocket 4.1 19:55:53 10° SSW 20:00:12 64° WNW 20:04:33 10° N
Cosmos 2251 Rocket 3.9 19:57:41 10° S 20:02:41 41° ESE 20:07:41 10° NE
SPOT 1/Viking Rocket 4.4 19:58:13 10° SE 20:02:49 35° ENE 20:07:31 10° N
Cosmos 389 Rocket 3.8 20:00:14 10° SE 20:02:57 22° E 20:05:46 10° NE
Cosmos 2333 Rocket 2.7 19:58:02 10° NW 20:03:44 61° WSW 20:09:21 10° SSE
Cosmos 2297 Rocket 3.5 20:02:38 10° SE 20:06:23 18° E 20:10:09 10° ENE
BREEZE-M DEB (TANK) 1.9 20:04:09 10° W 20:06:40 50° S 20:08:17 16° ESE
Cosmos 1825 2.1 20:03:31 10° N 20:07:19 87° E 20:11:06 10° S
Cosmos 1634 Rocket 4.0 20:01:24 10° S 20:07:35 66° E 20:13:47 10° NNE
ATLAS 2AS CENTAUR R/B 3.0 20:00:59 10° SSW 20:08:53 77° SE 20:16:37 10° NE
SPOT 3 Rocket 3.7 20:04:06 10° SSE 20:09:12 60° ENE 20:14:20 10° N
NOSS 7 (H) 4.0 20:06:27 10° SW 20:09:44 74° SE 20:12:38 10° NE
Cosmos 1726 Rocket 4.1 20:06:21 10° SSW 20:10:42 64° WNW 20:15:02 10° N
ARIANE 5 R/B 3.8 20:09:19 13° ESE 20:12:24 27° ENE 20:16:07 10° N
Ariane Rocket 3.3 20:09:39 10° S 20:14:42 71° WSW 20:19:46 10° NNW
Cosmos 1408 3.7 20:11:54 10° NNW 20:15:20 44° W 20:18:43 10° SSW
Orbus 7S? 3.5 20:16:40 10° SSW 20:19:31 49° SE 20:24:50 10° ENE
CZ-4C R/B 3.2 20:15:54 10° WSW 20:21:03 52° NNW 20:27:21 10° NE
RESURS DK-1 2.4 20:18:16 10° SSW 20:22:19 59° ESE 20:26:25 10° NE
Genesis I 4.2 20:18:48 10° NNW 20:22:34 38° NE 20:25:22 16° E
Landsat 7 3.9 20:20:37 13° SSE 20:24:51 64° ENE 20:29:35 10° N
USA 245 3.8 20:24:37 18° SE 20:26:59 37° ENE 20:30:02 10° N
Cosmos-2242 4.2 20:25:50 18° ESE 20:27:38 24° E 20:31:05 10° NE
Cosmos 2058 3.4 20:24:12 10° NNW 20:28:23 63° W 20:32:29 10° S
NOSS 7 (E) 4.2 20:24:46 10° SW 20:28:24 69° SE 20:31:28 10° NE
Meteor 2-1 Rocket 4.3 20:23:16 10° S 20:29:04 78° E 20:35:02 10° NNE
Cosmos 1655 Rocket 4.2 20:26:43 10° N 20:32:55 55° ENE 20:37:46 17° SSE
Cosmos 482 Debris 2.4 20:31:06 10° WSW 20:33:26 80° SSE 20:33:56 44° E
SL-16 R/B 3.2 20:28:46 10° NNW 20:34:00 35° NE 20:37:53 16° ESE
Cosmos 1980 3.7 20:29:48 10° NNW 20:35:32 79° ENE 20:39:45 19° SE
Cosmos 2058 Rocket 3.8 20:32:35 10° SSW 20:36:52 56° WNW 20:41:11 10° N
COSMOS 2487 3.8 20:33:57 10° SW 20:37:12 42° WNW 20:40:29 10° NNE
Cosmos 614 Rocket 4.0 20:32:17 10° S 20:37:18 56° ESE 20:42:18 10° NNE
BREEZE-M DEB (TANK) 3.9 20:33:58 10° WSW 20:38:18 73° SSE 20:54:44 10° E
Cosmos 2151 3.1 20:38:29 10° N 20:42:46 58° ENE 20:45:16 23° SSE
COSMOS 2428 3.7 20:38:44 10° NW 20:44:08 43° WSW 20:49:31 10° S
Meteor 2-3 Rocket 4.0 20:38:59 10° N 20:44:43 56° ENE 20:48:26 21° SE
IRIDIUM 104 4.3 20:40:20 10° S 20:45:31 76° E 20:50:46 10° N
Cosmos 1076 Rocket 3.6 20:42:12 10° NNW 20:46:35 76° W 20:50:07 15° S
Cosmos 2344 3.5 20:39:43 10° SSW 20:47:07 75° SE 20:55:12 10° NE
ATLAS 3B R/B 3.3 20:40:27 10° NW 20:47:12 53° WSW 20:53:12 15° SSE
FALCON 9 DEB 3.4 20:45:13 10° SW 20:48:28 43° SSE 20:49:45 29° E
Cosmos 192 4.4 20:43:59 10° NNW 20:48:58 77° WSW 20:52:27 20° SSE
USA 215 3.3 20:45:38 20° SE 20:50:23 71° SW 20:56:57 10° WNW
Cosmos 1812 Rocket 3.5 20:47:57 14° S 20:51:45 67° E 20:56:13 10° NNE
Resurs 01 Rocket 2.3 20:50:18 11° S 20:54:26 54° W 20:58:50 10° NNW
IRIDIUM 114 4.3 20:49:26 10° S 20:54:40 88° E 20:59:56 10° N
Cosmos 1818 3.5 20:49:32 10° SSW 20:54:58 76° SE 21:00:27 10° NE
Cosmos 1455 3.9 20:52:26 10° SW 20:55:52 33° WNW 20:59:18 10° N
Cosmos 2219 Rocket 3.8 20:52:09 10° NW 20:57:02 30° WSW 21:01:53 10° SSW
Cosmos 44 3.4 20:51:57 10° SW 20:57:08 87° SE 21:02:35 10° NE
ERS-1 Rocket 3.3 20:54:40 25° SE 20:57:17 49° ENE 21:02:06 10° N
Cosmos 407 Rocket 3.7 20:53:35 15° S 20:57:36 47° ESE 21:02:33 10° NE
Okean 3 Rocket 4.3 20:53:23 10° N 20:57:40 38° ENE 20:59:21 28° ESE
NOSS 0 Rocket 4.4 20:52:16 10° NW 20:58:21 57° WSW 21:03:07 17° S
Meteor 2-21 4.4 20:54:43 10° N 21:00:48 88° W 21:05:28 18° S
Cosmos 1766 Rocket 4.1 20:57:57 10° N 21:02:04 40° ENE 21:03:29 31° ESE
Cosmos 1633 2.5 20:58:56 10° NNW 21:02:33 83° W 21:04:09 31° S
IRIDIUM 103 4.4 20:58:36 10° S 21:03:49 79° W 21:09:05 10° N
CARTOSAT-1 3.5 21:04:22 32° SSE 21:06:19 69° ENE 21:10:37 10° N
IGS 5A 4.3 21:04:08 15° S 21:07:24 46° W 21:11:25 10° NNW
ATLAS 5 CENTAUR R/B 4.0 21:04:26 10° WNW 21:08:04 24° NNW 21:12:11 10° NE
Cosmos 405 Rocket 4.2 21:05:34 10° NNW 21:09:16 35° W 21:12:30 12° SSW
Meteor 1-4 Rocket 4.0 21:10:11 22° ENE 21:10:11 22° ENE 21:12:18 10° NE
Lacrosse 5 rocket 2.7 21:05:37 10° WNW 21:09:36 40° N 21:13:46 10° ENE
Cosmos 909 Rocket 4.0 21:07:08 10° SW 21:13:26 89° WNW 21:20:04 10° NE
Cosmos 1023 Rocket 4.4 21:12:05 19° S 21:15:34 59° ESE 21:20:35 10° NNE
COSMOS 2455 3.7 21:18:15 27° ESE 21:18:22 27° ESE 21:23:18 10° NE
Cosmos 1869 3.8 21:18:39 38° ESE 21:18:52 38° E 21:22:35 10° NNE
SPOT 5 2.7 21:19:30 37° SE 21:21:15 72° ENE 21:26:02 10° NNW
Cosmos 1140 Rocket 3.4 21:18:31 20° S 21:21:59 64° ESE 21:27:05 10° NNE
Cosmos 2237 Rocket 2.7 21:18:49 10° NW 21:24:18 53° WSW 21:27:26 25° S
Spot 2 Rocket 3.6 21:21:43 27° S 21:24:33 72° WSW 21:29:39 10° NNW
CZ-2C R/B 3.9 21:20:26 10° N 21:24:52 67° WNW 21:28:54 12° SSW
SeaSat 1 4.3 21:23:07 10° ENE 21:24:38 14° E 21:24:38 14° E
Terra 1.9 21:28:59 41° SE 21:30:31 65° ENE 21:35:16 10° N
Cosmos 389 Rocket 4.3 21:34:17 10° SW 21:37:27 31° WNW 21:40:41 10° N
Cosmos 2082 4.1 21:39:13 37° ESE 21:39:41 38° ESE 21:44:50 10° NE
USA 229 DEB 4.4 21:34:14 10° NW 21:41:12 53° NNE 21:46:08 22° E
USA 229 4.4 21:34:20 10° NW 21:41:18 52° NNE 21:46:15 22° E
Cosmos 2263 Rocket 4.1 21:42:46 13° E 21:42:46 13° E 21:44:10 10° ENE
SPOT 1/Viking Rocket 4.5 21:38:50 20° SSW 21:42:09 43° W 21:47:09 10° NNW
Cosmos 468 Rocket 4.1 21:37:09 10° NNW 21:42:15 60° ENE 21:43:44 42° ESE
Cosmos 2227 Rocket 2.1 21:38:45 24° SSW 21:42:16 69° ESE 21:47:54 10° NE
Meteor 2-8 Rocket 4.4 21:42:18 32° S 21:45:15 73° E 21:51:23 10° NNE
ARIANE 5 R/B 3.5 21:46:52 28° SSW 21:48:42 42° W 21:52:54 10° NNW
Cosmos 1842 Rocket 4.3 21:49:34 37° E 21:49:34 37° E 21:53:29 10° NNE
Cosmos 2297 Rocket 2.1 21:44:01 10° SSW 21:49:41 88° WNW 21:55:24 10° NNE
Cosmos 841 Rocket 4.4 21:45:04 10° NNW 21:49:57 37° NE 21:51:30 31° E
Cosmos 1190 Rocket 3.9 21:47:50 23° SSW 21:51:13 87° WNW 21:56:28 10° NNE
Cosmos 2219 3.1 21:47:37 14° SSW 21:52:26 90° ESE 21:58:06 10° NNE
H-2A R/B 3.4 21:49:14 10° NNE 21:53:27 67° ESE 21:53:41 66° SE
NOSS 3-1 (A) 4.3 21:52:08 10° NW 21:59:06 59° NE 22:04:04 25° ESE
Genesis I 4.1 21:56:26 10° NW 22:00:09 37° WSW 22:00:14 37° SW
ATLAS 2AS CENTAUR R/B 4.0 21:52:55 10° W 22:00:29 47° NNW 22:07:47 10° NE
Cosmos 921 Rocket 4.2 21:57:14 10° N 22:01:15 31° ENE 22:01:48 30° ENE
Timation 2 Rocket 3.9 21:54:58 10° SSW 22:01:33 88° ESE 22:07:53 10° NNE
Cosmos 1763 Rocket 3.3 21:56:50 10° NNW 22:01:57 80° ENE 22:02:58 57° SE
Cosmos 1862 3.3 21:58:13 10° N 22:02:04 66° ENE 22:02:04 66° ENE
Nadezhda 2 Rocket 4.4 21:57:12 10° N 22:03:34 88° E 22:05:44 44° S
Cosmos-2242 4.1 22:02:38 22° SW 22:04:58 42° WNW 22:09:06 10° N
Cosmos 1408 Rocket 3.3 22:01:26 10° N 22:05:47 89° E 22:06:07 76° SSE
Cosmos 676 Rocket 3.8 22:07:08 48° SSW 22:08:38 82° ESE 22:13:51 10° NNE
CZ-4C R/B 4.3 22:05:53 10° WNW 22:11:00 30° N 22:17:02 10° NE
CRYOSAT 2 4.3 22:10:15 59° S 22:11:13 86° W 22:16:10 10° N
SL-16 R/B 2.6 22:12:50 10° NW 22:18:24 55° WSW 22:19:46 44° SSW
Sich 1 4.1 22:17:14 10° N 22:20:54 32° ENE 22:20:54 32° ENE
Cosmos 540 Rocket 3.5 22:16:14 10° NNW 22:21:22 67° ENE 22:22:04 59° ESE
Cosmos 1743 Rocket 3.5 22:17:01 10° N 22:21:16 71° ENE 22:21:16 71° ENE
Meteor 2-15 Rocket 4.3 22:22:07 50° S 22:23:49 82° E 22:29:56 10° NNE
NOSS 3-1 (C) 4.0 22:18:09 10° NW 22:25:26 88° SW 22:28:42 42° SE
SL-08 ROCKET BODY 4.3 22:20:16 10° N 22:26:25 88° E 22:27:52 55° SSE
Cosmos 1570 Rocket 4.4 22:23:17 10° NNW 22:28:29 53° ENE 22:29:21 48° E
Cosmos 2221 2.5 22:30:07 80° NNE 22:30:07 80° NNE 22:34:11 10° N
SL-08 R/B 4.4 22:23:56 10° N 22:30:08 88° W 22:31:43 54° S
Cosmos 1386 Rocket 4.4 22:27:22 10° N 22:33:28 71° ENE 22:34:38 56° SE
USA 215 4.4 22:32:58 24° SW 22:34:11 25° SW 22:39:27 10° WNW
Cosmos 44 Rocket 3.5 22:36:36 61° E 22:36:36 61° E 22:41:17 10° NE
ERS-1 Rocket 4.5 22:34:39 23° SW 22:36:18 28° W 22:40:37 10° NW
Aureole 1 Rocket 3.8 22:38:07 52° E 22:38:07 52° E 22:42:29 10° NE
Cosmos 1553 Rocket 3.8 22:39:11 57° S 22:40:31 84° E 22:46:39 10° N
Cosmos 1500 Rocket 3.6 22:36:27 10° NNW 22:40:50 75° W 22:40:50 75° W
Meteor 1-4 Rocket 4.2 22:44:18 28° WNW 22:44:20 28° WNW 22:47:27 10° N
Cosmos 1943 3.1 22:42:32 10° NNW 22:48:12 76° ENE 22:48:59 64° ESE
Cosmos 1741 Rocket 3.9 22:48:41 71° ESE 22:48:41 71° ESE 22:53:57 10° NNE
Lacrosse 5 rocket 2.0 22:45:05 10° WNW 22:49:21 54° NNE 22:49:48 52° NE
ALOS 2 3.2 22:49:56 47° ENE 22:49:56 47° ENE 22:53:55 10° N
Cosmos 1417 Rocket 4.4 22:49:46 58° S 22:51:08 86° E 22:57:27 10° N
Cosmos 1850 Rocket 3.8 22:54:08 80° SE 22:54:12 81° ESE 22:59:29 10° NNE
ATLAS 5 CENTAUR R/B 4.2 22:50:20 10° NW 22:54:15 23° NNE 22:58:42 10° ENE
Cosmos 2208 Rocket 3.9 22:58:03 10° NNW 23:03:24 79° ENE 23:03:42 76° ESE
COSMOS 2455 3.0 23:01:18 37° SW 23:03:49 73° NW 23:09:53 10° NE
SeaSat 1 2.3 22:59:25 10° NNE 23:04:24 88° ESE 23:04:24 88° ESE
Cosmos 1606 3.8 23:09:02 42° N 23:09:02 42° N 23:11:40 10° N
Terra 3.7 23:07:51 19° WSW 23:08:43 20° W 23:12:11 10° NW
Cosmos 2315 Rocket 4.1 23:10:31 54° ESE 23:11:12 57° E 23:17:25 10° NNE
Iridium 4 Rocket 4.0 23:11:57 46° ENE 23:11:57 46° ENE 23:16:43 10° NNE
Cosmos 1151 Rocket 4.2 23:21:43 34° NE 23:21:43 34° NE 23:24:41 10° NNE
SL-24 DEB 4.4 23:21:37 69° NW 23:21:37 69° NW 23:25:52 10° N
Cosmos 2263 Rocket 2.0 23:24:25 76° ESE 23:24:25 76° ESE 23:29:55 10° NNE
Cosmos 2227 Rocket 3.9 23:21:52 10° WSW 23:26:49 30° NW 23:31:47 10° NNE
Cosmos 841 Rocket 4.3 23:27:01 10° NW 23:31:35 40° W 23:31:35 40° W
USA 229 DEB 3.9 23:25:18 10° NW 23:32:26 60° SW 23:33:33 55° SSW
USA 229 3.9 23:25:24 10° NW 23:32:32 61° SW 23:33:40 55° SSW
Cosmos 1603 4.0 23:26:59 10° NW 23:32:30 54° WSW 23:32:30 54° WSW
Meteor 2-17 Rocket 4.3 23:26:53 10° NNW 23:33:01 75° W 23:33:42 67° SW
Cosmos 2297 Rocket 4.3 23:30:01 10° W 23:34:33 24° NW 23:39:07 10° NNE
USA 281 3.5 23:33:03 42° ESE 23:35:09 61° NE 23:41:38 10° NNW
Cosmos 1844 Rocket 4.1 23:39:31 25° E 23:39:31 25° E 23:43:11 10° NE
Cosmos 921 Rocket 4.4 23:35:30 10° NW 23:38:35 32° WNW 23:38:35 32° WNW
Cosmos 2074 Rocket 4.2 23:36:08 10° N 23:42:19 58° ENE 23:43:22 52° ESE
Cosmos 1437 Rocket 4.1 23:43:52 37° NNW 23:43:52 37° NNW 23:46:22 10° N
Cosmos 1709 Rocket 4.1 23:39:54 10° NNW 23:46:02 61° W 23:46:44 57° WSW
Meteor 1-5 Rocket 4.5 23:41:04 10° N 23:46:48 58° ENE 23:47:20 55° E
NOSS 3-1 (A) 4.2 23:43:03 10° NW 23:50:17 55° SW 23:51:29 51° SSW
